User: anonymous   Login
Location: Unspecified
(0.0000°N, 0.0000°E)
Time: 21:07:20
(UTC+00:00)
Language:

STARLINK-31132 - Orbit

View from above orbital plane
View from above orbital plane
View from above satellite
View from above satellite

Ground track
Ground track

The orbit is defined by the following mean orbital elements,

1 58777U          26144.91548683 +.00000000 +00000-0 +15766-4 0 00007
2 58777  53.1603 289.1900 0001502  69.7645 290.3518 15.31696079    03
Epoch (UTC): 24 May 2026 21:58:18
Eccentricity: 0.0001502
inclination: 53.1603°
perigee height: 470 km
apogee height: 472 km
right ascension of ascending node: 289.1900°
argument of perigee: 69.7645°
revolutions per day: 15.31696079
mean anomaly at epoch: 290.3518°

The dashed part of the orbit path shows where the satellite is in the earth's shadow,  

DLR